Hourly Weather Maslowiczki

Today, 28 January, Thursday

Time Temperature Precipitation Wind Pressure Humidity
00:00 -2°C° 0 mm 3 mps 737 mmHg 90%
01:00 -2°C° 0 mm 3 mps 736 mmHg 89%
02:00 -3°C° 0 mm 4 mps 735 mmHg 90%
03:00 -3°C° 0 mm 4 mps 735 mmHg 91%
04:00 -5°C° 0 mm 5 mps 734 mmHg 92%
05:00 -5°C° 0.5 mm 5 mps 733 mmHg 92%
06:00 -5°C° 0.5 mm 5 mps 733 mmHg 93%
07:00 -5°C° 0.5 mm 5 mps 732 mmHg 94%
08:00 -4°C° 0.6 mm 5 mps 731 mmHg 94%
09:00 -4°C° 0.6 mm 5 mps 731 mmHg 95%
10:00 -2°C° 0.6 mm 5 mps 731 mmHg 95%
11:00 -2°C° 0.2 mm 5 mps 730 mmHg 89%
12:00 -2°C° 0.2 mm 5 mps 730 mmHg 83%
13:00 -2°C° 0.2 mm 5 mps 730 mmHg 77%
14:00 -4°C° 0 mm 5 mps 730 mmHg 78%
15:00 -3°C° 0 mm 4 mps 729 mmHg 79%
16:00 -4°C° 0 mm 4 mps 729 mmHg 80%
17:00 -4°C° 0 mm 4 mps 729 mmHg 83%
18:00 -5°C° 0 mm 4 mps 729 mmHg 86%
19:00 -5°C° 0 mm 4 mps 729 mmHg 89%
20:00 -6°C° 0.1 mm 5 mps 729 mmHg 90%
21:00 -6°C° 0.1 mm 5 mps 729 mmHg 91%
22:00 -6°C° 0.1 mm 5 mps 729 mmHg 92%
23:00 -6°C° 0.1 mm 5 mps 729 mmHg 92%

Tomorrow, 29 January, Friday

Time Temperature Precipitation Wind Pressure Humidity
00:00 -6°C° 0.1 mm 5 mps 729 mmHg 92%
01:00 -6°C° 0.1 mm 6 mps 729 mmHg 92%
02:00 -6°C° 0.2 mm 5 mps 729 mmHg 92%
03:00 -6°C° 0.2 mm 5 mps 729 mmHg 92%
04:00 -6°C° 0.2 mm 5 mps 729 mmHg 93%
05:00 -6°C° 0.1 mm 5 mps 729 mmHg 93%
06:00 -6°C° 0.1 mm 5 mps 729 mmHg 93%
07:00 -5°C° 0.1 mm 4 mps 729 mmHg 92%
08:00 -4°C° 0 mm 4 mps 729 mmHg 91%
09:00 -4°C° 0 mm 4 mps 729 mmHg 90%
10:00 -4°C° 0 mm 4 mps 729 mmHg 89%
11:00 -2°C° 0 mm 3 mps 729 mmHg 88%
12:00 -2°C° 0 mm 3 mps 729 mmHg 86%
13:00 -1°C° 0 mm 2 mps 729 mmHg 85%
14:00 -2°C° 0 mm 2 mps 729 mmHg 87%
15:00 0°C° 0 mm 1 mps 729 mmHg 89%
16:00 -1°C° 0 mm 1 mps 728 mmHg 91%
17:00 -1°C° 0 mm 1 mps 728 mmHg 92%
18:00 -2°C° 0 mm 1 mps 728 mmHg 92%
19:00 -2°C° 0 mm 1 mps 728 mmHg 93%
20:00 -2°C° 0 mm 1 mps 728 mmHg 92%
21:00 -3°C° 0 mm 0 mps 728 mmHg 91%
22:00 -3°C° 0 mm 0 mps 729 mmHg 90%
23:00 -3°C° 0 mm 0 mps 728 mmHg 90%

Day after tomorrow, 30 January, Saturday

Time Temperature Precipitation Wind Pressure Humidity
00:00 -3°C° 0 mm 0 mps 728 mmHg 91%
01:00 -3°C° 0 mm 0 mps 728 mmHg 91%
02:00 -2°C° 0.2 mm 1 mps 728 mmHg 92%
03:00 -2°C° 0.2 mm 1 mps 728 mmHg 94%
04:00 -2°C° 0.2 mm 1 mps 728 mmHg 95%
05:00 -2°C° 0.3 mm 1 mps 728 mmHg 95%
06:00 -4°C° 0.3 mm 2 mps 728 mmHg 94%
07:00 -4°C° 0.3 mm 2 mps 728 mmHg 94%
08:00 -5°C° 0.1 mm 3 mps 728 mmHg 90%
09:00 -5°C° 0.1 mm 3 mps 729 mmHg 86%
10:00 -4°C° 0.1 mm 3 mps 729 mmHg 81%
11:00 -4°C° 0 mm 4 mps 729 mmHg 78%
12:00 -4°C° 0 mm 4 mps 729 mmHg 74%
13:00 -4°C° 0 mm 4 mps 730 mmHg 71%
14:00 -4°C° 0 mm 4 mps 730 mmHg 74%
15:00 -5°C° 0 mm 3 mps 730 mmHg 76%
16:00 -5°C° 0 mm 3 mps 730 mmHg 79%
17:00 -6°C° 0 mm 3 mps 730 mmHg 82%
18:00 -6°C° 0 mm 3 mps 730 mmHg 84%
19:00 -7°C° 0 mm 3 mps 731 mmHg 87%
20:00 -6°C° 0 mm 3 mps 731 mmHg 88%
21:00 -6°C° 0 mm 3 mps 731 mmHg 88%
22:00 -5°C° 0 mm 2 mps 731 mmHg 89%
23:00 -6°C° 0.1 mm 3 mps 731 mmHg 91%

31 January, Sunday

Time Temperature Precipitation Wind Pressure Humidity
00:00 -6°C° 0.1 mm 3 mps 731 mmHg 92%
01:00 -7°C° 0.1 mm 4 mps 731 mmHg 94%
02:00 -5°C° 0.1 mm 4 mps 731 mmHg 93%
03:00 -5°C° 0.1 mm 4 mps 731 mmHg 93%
04:00 -5°C° 0.1 mm 4 mps 731 mmHg 92%
05:00 -7°C° 0 mm 4 mps 731 mmHg 93%
06:00 -7°C° 0 mm 4 mps 731 mmHg 93%
07:00 -7°C° 0 mm 4 mps 731 mmHg 93%
08:00 -7°C° 0 mm 4 mps 731 mmHg 92%
09:00 -7°C° 0 mm 4 mps 731 mmHg 90%
10:00 -7°C° 0 mm 4 mps 731 mmHg 89%
11:00 -5°C° 0 mm 4 mps 731 mmHg 87%
12:00 -4°C° 0 mm 4 mps 731 mmHg 84%
13:00 -3°C° 0 mm 4 mps 731 mmHg 82%
14:00 -4°C° 0 mm 3 mps 731 mmHg 84%
15:00 -4°C° 0 mm 3 mps 731 mmHg 85%
16:00 -4°C° 0 mm 2 mps 731 mmHg 87%
17:00 -4°C° 0 mm 2 mps 731 mmHg 87%
18:00 -5°C° 0 mm 2 mps 730 mmHg 86%
19:00 -5°C° 0 mm 2 mps 730 mmHg 86%
20:00 -6°C° 0 mm 2 mps 730 mmHg 84%
21:00 -6°C° 0 mm 2 mps 730 mmHg 83%
22:00 -6°C° 0 mm 2 mps 730 mmHg 82%
23:00 -6°C° 0 mm 2 mps 730 mmHg 82%

1 February, Monday

Time Temperature Precipitation Wind Pressure Humidity
00:00 -6°C° 0 mm 2 mps 729 mmHg 82%
01:00 -6°C° 0 mm 2 mps 729 mmHg 81%
02:00 -6°C° 0 mm 2 mps 729 mmHg 83%
03:00 -6°C° 0 mm 2 mps 729 mmHg 84%
04:00 -6°C° 0 mm 2 mps 729 mmHg 85%
05:00 -6°C° 0 mm 2 mps 729 mmHg 85%
06:00 -7°C° 0 mm 2 mps 729 mmHg 85%
07:00 -7°C° 0 mm 2 mps 729 mmHg 85%
08:00 -4°C° 0 mm 1 mps 729 mmHg 83%
09:00 -4°C° 0 mm 1 mps 730 mmHg 80%
10:00 -3°C° 0 mm 1 mps 730 mmHg 78%
11:00 -2°C° 0 mm 1 mps 730 mmHg 77%
12:00 -2°C° 0 mm 1 mps 730 mmHg 75%
13:00 -1°C° 0 mm 1 mps 730 mmHg 74%
14:00 -1°C° 0 mm 1 mps 731 mmHg 78%
15:00 -2°C° 0 mm 1 mps 731 mmHg 82%
16:00 -2°C° 0 mm 1 mps 731 mmHg 87%
17:00 -3°C° 0 mm 1 mps 732 mmHg 88%
18:00 -5°C° 0 mm 2 mps 732 mmHg 90%
19:00 -5°C° 0 mm 2 mps 733 mmHg 91%
20:00 -5°C° 0 mm 2 mps 733 mmHg 91%
21:00 -5°C° 0 mm 2 mps 734 mmHg 91%
22:00 -3°C° 0 mm 1 mps 734 mmHg 91%
23:00 -5°C° 0 mm 2 mps 735 mmHg 92%

2 February, Tuesday

Time Temperature Precipitation Wind Pressure Humidity
00:00 -5°C° 0 mm 2 mps 735 mmHg 92%
01:00 -6°C° 0 mm 2 mps 736 mmHg 92%
02:00 -6°C° 0 mm 2 mps 736 mmHg 93%
03:00 -6°C° 0 mm 2 mps 736 mmHg 94%
04:00 -6°C° 0 mm 2 mps 737 mmHg 94%
05:00 -6°C° 0 mm 2 mps 737 mmHg 95%
06:00 -6°C° 0 mm 2 mps 737 mmHg 95%
07:00 -6°C° 0 mm 2 mps 737 mmHg 96%
08:00 -5°C° 0 mm 2 mps 737 mmHg 94%
09:00 -5°C° 0 mm 2 mps 738 mmHg 93%
10:00 -4°C° 0 mm 2 mps 738 mmHg 92%
11:00 -4°C° 0 mm 3 mps 737 mmHg 90%
12:00 -4°C° 0 mm 3 mps 737 mmHg 88%
13:00 -2°C° 0 mm 3 mps 737 mmHg 86%
14:00 -3°C° 0 mm 4 mps 736 mmHg 84%
15:00 -4°C° 0 mm 4 mps 735 mmHg 82%
16:00 -5°C° 0 mm 5 mps 734 mmHg 80%
17:00 -5°C° 0.1 mm 5 mps 733 mmHg 83%
18:00 -5°C° 0.1 mm 6 mps 732 mmHg 86%
19:00 -6°C° 0.1 mm 6 mps 731 mmHg 89%
20:00 -6°C° 0.7 mm 6 mps 730 mmHg 91%
21:00 -5°C° 0.7 mm 6 mps 729 mmHg 93%
22:00 -5°C° 0.7 mm 6 mps 728 mmHg 94%
23:00 -4°C° 0.6 mm 6 mps 727 mmHg 95%
Show more

We Need Your Consent

Meteoprog and our Service Providers may store and access personal data such as cookies, device identifiers or other similar technologies on your device and process such data to personalise content and ads, as well as provide social media features and to analyse the traffic.

  • Store and/or access information on your device

    Cookies, device identifiers or other information can be stored or accessed on your device for the purposes indicated above.

  • Personalised ads and content, ad and content measurement, audience insights, and products development

    Ads and content can be personalised based on a profile. More data can be added to better personalise ads and content. Ad and content performance can be measured. Insights about the audience who saw the ads and content can be derived. Such data can be used to develop or improve user’s experience, systems and software.

By clicking ‘I Agree’ you will allow the use of indicated cookies, device identifiers, web beacons or other similar technologies. Your settings can be changed in the browser on your device.

For certain purposes, legitimate interests may be relied on, rather than consent. You can read more about this in our Privacy and Cookie Policy.